GEFSCGP_con_prob3kmehi_144.txt.gz
EHI
0 0 0 0 0 0 0 0 0 0 0 0 0 1 2 4 5 9 17 24 27 31 38 41 39 36 37 38 37 37 37 37 36 35 27 21 18 15 12 9 5 2 1 0
0 0 0 0 0 0 0 0 0 0 0 0 0 0 2 3 5 8 15 22 24 27 34 39 39 38 39 38 35 33 34 32 32 32 29 25 22 16 11 10 7 3 1 0
0 0 0 0 0 0 0 0 0 0 0 0 0 1 2 2 3 7 12 19 23 23 27 31 33 35 37 36 30 27 28 26 25 27 26 24 22 15 9 9 8 4 1 0
0 0 0 0 0 0 0 0 0 0 0 0 0 1 1 1 2 5 11 18 23 22 19 20 23 27 32 30 25 23 24 22 20 22 21 17 15 10 7 8 9 6 2 0
0 0 0 0 0 0 0 0 0 0 0 0 0 0 0 0 1 4 10 17 22 21 17 15 18 22 26 26 24 24 25 21 19 18 15 11 10 8 7 9 11 8 4 1
0 0 0 0 0 0 0 0 0 0 0 0 0 0 0 0 0 2 8 15 20 20 19 19 22 24 24 23 24 26 24 20 17 14 10 7 8 9 9 9 10 9 5 2
0 0 0 0 0 0 0 0 0 0 0 0 0 0 0 0 0 1 5 11 17 18 20 23 27 28 25 22 23 24 22 17 11 7 5 5 8 10 10 8 8 7 5 2
0 0 0 0 0 0 0 0 0 0 0 0 0 0 0 0 0 0 2 8 15 17 18 21 25 26 23 19 19 21 18 13 9 7 7 7 9 11 10 7 5 5 3 1
0 0 0 0 0 0 0 0 0 0 0 0 0 0 0 0 0 0 2 8 15 16 16 18 21 21 17 14 16 17 14 12 11 11 10 8 8 8 8 6 3 2 2 1
0 0 0 0 0 0 0 0 0 0 0 0 0 0 0 0 0 0 2 7 13 16 17 20 22 19 15 13 14 13 12 11 11 10 8 6 6 5 6 4 2 0 0 0
0 0 0 0 0 0 0 0 0 0 0 0 0 0 0 0 0 0 1 4 9 13 16 21 24 22 18 15 13 11 10 9 9 7 5 4 4 4 4 3 1 0 0 0
0 0 0 0 0 0 0 0 0 0 0 0 0 0 0 0 0 0 0 1 3 7 11 18 23 23 19 15 12 9 8 7 7 7 5 4 4 4 4 3 1 0 0 0
0 0 0 0 0 0 0 0 0 0 0 0 0 0 0 0 0 0 0 0 1 3 8 15 21 21 19 16 13 9 8 7 7 6 5 5 5 5 6 4 2 1 1 1
0 0 0 0 0 0 0 0 0 0 0 0 0 0 0 0 0 0 0 0 2 6 11 15 18 18 17 17 15 12 10 8 8 6 5 5 6 6 6 6 4 3 3 3
0 0 0 0 0 0 0 0 0 0 0 0 0 0 0 0 1 1 1 1 4 11 16 18 17 15 15 17 18 16 14 12 10 8 7 7 8 8 8 8 6 4 4 4
0 0 0 0 0 0 0 0 0 0 0 0 0 0 0 0 1 3 3 4 6 13 19 20 18 17 15 18 20 21 20 17 14 11 10 10 10 10 10 9 7 5 4 5
1 1 0 0 0 0 0 1 1 1 0 0 0 0 1 2 3 4 5 5 6 11 16 20 20 19 18 19 22 23 23 21 18 15 14 12 11 10 8 7 7 6 5 7
0 0 0 0 0 0 0 1 2 2 1 0 1 1 2 3 3 4 4 4 4 6 10 14 16 17 18 20 22 23 22 22 21 19 17 14 11 9 8 8 10 10 10 11
0 0 0 0 0 0 0 1 1 2 2 1 2 2 2 2 2 2 1 1 2 4 6 7 11 14 17 21 24 25 23 22 22 21 20 16 12 12 13 14 15 16 15 14
0 0 0 0 0 0 0 0 0 1 1 1 1 1 1 1 1 1 1 2 4 6 7 6 9 13 18 24 31 32 29 27 25 23 23 22 19 17 18 20 21 21 19 17
0 0 0 0 0 0 0 0 0 0 1 1 0 1 2 2 2 2 3 4 7 10 11 11 12 14 20 29 36 35 32 30 26 24 26 28 26 23 23 25 26 25 23 22
0 0 0 0 0 0 0 0 0 1 1 1 0 0 2 3 3 2 3 5 8 13 15 15 17 19 23 30 33 32 30 29 28 27 30 33 33 29 28 31 31 30 27 24
0 0 0 0 0 0 0 0 1 1 2 1 0 0 2 2 1 1 1 3 8 14 17 17 19 24 26 27 28 28 29 31 32 35 37 39 40 36 35 35 33 30 25 20
0 0 0 0 0 0 0 0 1 1 1 1 0 0 1 1 0 0 0 2 6 10 15 16 16 21 25 25 24 27 31 37 40 41 42 44 42 38 34 31 27 24 20 16
0 0 0 0 0 0 0 0 1 1 1 0 0 0 0 0 0 0 0 1 2 6 10 12 13 16 19 21 24 28 35 42 43 41 40 38 34 29 24 18 13 12 13 13
0 0 0 0 0 0 0 0 1 1 0 0 0 0 0 0 0 0 0 1 1 4 8 11 13 15 15 17 23 31 39 43 43 40 36 31 25 22 16 9 4 5 7 7

GEFSCGP_con_prob3kmehi_150.txt.gz
EHI
0 0 0 0 0 0 0 0 0 0 0 0 1 1 1 1 2 8 19 35 55 73 79 75 72 69 66 64 62 59 54 51 53 57 59 61 59 54 50 50 50 45 36 30
0 0 0 0 0 0 0 0 0 0 0 0 1 1 1 1 3 8 18 33 53 72 80 77 72 69 65 63 60 57 53 51 53 57 59 61 58 51 46 46 47 43 36 32
0 0 0 0 0 0 0 0 0 0 0 0 1 1 1 2 3 6 15 28 46 67 78 78 74 67 63 61 58 54 51 51 53 56 58 58 54 45 39 41 43 40 34 31
0 0 0 0 0 0 0 0 0 0 0 0 0 0 0 2 3 6 13 23 39 57 70 75 73 66 61 59 57 53 50 49 51 53 54 54 50 42 38 40 42 38 32 28
0 0 0 0 0 0 0 0 0 0 0 0 0 0 0 1 2 6 12 21 35 53 66 71 70 65 58 55 54 51 48 46 46 47 49 50 47 42 40 40 41 36 29 26
0 0 0 0 0 0 0 0 0 0 0 0 0 0 0 0 1 4 12 21 35 53 65 68 66 61 56 53 51 49 46 43 42 42 42 43 42 41 38 37 36 32 26 25
0 0 0 0 0 0 0 0 0 0 0 0 0 0 0 1 1 4 11 21 34 48 60 64 63 59 55 53 51 50 47 42 41 39 37 36 37 36 34 31 30 26 23 22
0 0 0 0 0 0 0 0 0 0 0 0 0 0 1 1 1 3 10 19 29 41 50 56 58 57 54 53 54 54 50 44 40 39 36 34 33 30 28 27 26 23 20 19
0 0 0 0 0 0 0 0 0 0 0 0 0 0 1 2 2 3 9 17 26 36 43 48 52 53 52 53 56 55 51 45 40 38 35 31 28 26 25 25 24 21 17 16
0 0 0 0 0 0 0 0 0 0 0 0 0 0 2 3 3 3 9 18 25 33 41 45 47 51 52 53 56 55 51 46 41 36 29 25 23 24 26 25 22 19 18 19
0 0 0 0 0 0 0 0 0 0 0 0 0 0 1 3 3 4 8 16 23 30 39 46 49 51 52 52 51 53 52 47 39 31 25 21 20 23 25 24 20 19 21 23
0 0 0 0 0 0 0 0 0 0 0 0 0 0 1 1 2 3 6 12 18 26 38 49 54 53 51 49 48 50 51 46 36 26 21 19 20 21 22 21 20 21 20 20
0 0 0 0 0 0 0 0 0 0 0 0 0 0 0 1 2 3 5 10 15 23 36 51 60 60 56 52 50 50 48 43 34 24 18 17 18 20 21 20 21 22 18 14
0 0 0 0 0 0 0 0 0 0 0 0 0 0 1 2 4 6 6 9 15 24 35 51 63 66 63 59 54 50 46 41 35 28 22 19 19 20 22 21 22 22 17 11
0 0 0 0 0 0 0 0 0 0 0 0 0 1 3 5 6 7 8 11 18 25 34 48 60 66 65 61 56 50 45 41 38 34 28 24 21 22 23 24 24 22 15 10
0 0 0 0 0 0 0 0 0 0 0 0 1 3 4 5 7 8 12 17 22 27 35 46 58 65 64 61 57 51 47 44 42 38 33 29 27 27 27 26 25 25 20 15
1 1 1 0 0 0 0 0 0 0 1 1 4 7 8 8 10 12 17 22 25 27 33 44 57 64 65 63 58 51 48 48 45 41 38 37 36 34 31 28 27 29 28 27
2 2 1 0 0 0 0 0 0 1 2 3 5 11 14 13 14 17 20 23 23 24 28 40 52 60 64 65 59 50 47 48 46 43 42 44 43 40 36 34 33 33 34 35
4 3 2 0 0 0 1 2 2 2 3 4 6 10 12 11 13 17 20 22 22 21 24 31 42 52 60 64 59 50 47 48 46 43 45 49 49 44 40 41 42 40 39 38
4 4 2 0 0 0 2 4 3 2 4 6 6 7 8 9 10 14 17 20 21 22 21 23 31 42 54 62 63 57 51 51 50 46 47 52 53 48 45 47 48 45 41 40
3 3 1 0 0 0 2 4 4 5 6 7 7 7 9 11 12 13 15 16 17 18 17 19 26 35 45 56 63 62 55 54 58 57 54 55 54 48 46 49 51 45 39 38
2 1 1 1 1 3 5 5 6 9 9 7 7 7 7 9 11 12 12 13 14 14 15 19 25 33 40 47 54 58 55 56 63 66 64 61 56 47 43 48 49 42 35 34
2 2 3 3 3 5 8 7 8 10 9 7 5 5 4 4 6 8 9 12 14 14 14 18 25 31 38 42 45 48 51 54 59 63 64 64 60 50 46 47 43 35 30 27
1 2 4 4 4 5 6 7 8 8 8 7 5 4 4 3 4 6 8 10 13 14 15 17 21 25 31 36 38 41 45 49 53 56 58 59 57 52 48 42 33 24 20 18
0 1 1 1 2 2 2 3 5 5 6 5 5 5 4 3 4 6 7 8 9 12 14 15 17 19 23 27 31 35 40 45 49 52 50 49 48 43 37 30 19 12 9 8
0 0 0 0 0 1 1 1 2 2 2 2 3 3 2 2 3 5 6 6 7 9 13 14 15 16 18 22 27 32 37 43 48 48 43 40 39 34 27 19 9 4 3 2

GEFSCGP_con_prob3kmehi_156.txt.gz
EHI
0 0 0 0 0 0 0 0 0 0 0 0 0 1 4 8 14 23 38 54 63 63 60 62 65 65 64 61 57 53 48 43 41 41 39 37 31 24 17 12 9 10 11 9
0 0 0 0 0 0 0 0 0 0 0 0 0 1 4 8 14 22 36 53 64 65 64 65 65 64 63 60 56 53 50 44 41 39 38 35 30 23 18 13 10 12 12 10
0 0 0 0 0 0 0 0 0 0 0 0 0 1 4 8 12 20 33 49 64 68 67 66 64 62 61 58 55 54 52 46 41 37 35 33 28 22 18 14 12 12 11 8
0 0 0 0 0 0 0 0 0 0 0 0 0 1 3 7 12 19 30 45 58 65 65 63 61 60 59 56 54 53 52 48 42 36 33 32 26 19 15 14 12 10 8 6
0 0 0 0 0 0 0 0 0 0 0 0 0 0 1 6 11 15 24 38 50 56 59 58 57 58 57 53 51 50 49 46 42 36 32 29 23 16 13 12 10 8 6 4
0 0 0 0 0 0 0 0 0 0 0 0 0 0 1 4 8 11 17 29 42 50 53 54 54 55 53 50 48 46 44 42 38 33 28 24 18 13 10 10 8 7 6 5
0 0 0 0 0 0 0 0 0 0 0 0 0 0 0 2 5 9 15 25 36 42 44 47 49 50 48 45 43 42 40 39 34 28 23 18 12 8 7 6 6 6 6 5
0 0 0 0 0 0 0 0 0 0 0 0 0 0 0 2 5 11 17 25 33 34 34 38 42 42 39 38 38 38 37 36 31 24 19 14 8 4 3 3 3 3 4 4
0 0 0 0 0 0 0 0 0 0 0 0 0 0 0 2 7 13 18 24 27 27 29 33 36 35 32 32 32 33 32 30 27 21 16 12 7 3 1 1 1 1 1 2
0 0 0 0 0 0 0 0 0 0 0 0 0 0 0 2 7 12 15 17 19 21 25 31 33 31 30 29 29 28 26 24 22 18 15 13 10 5 2 1 0 0 0 1
0 0 0 0 0 0 0 0 0 0 0 0 0 0 0 1 4 7 9 11 12 16 22 26 28 28 27 27 27 28 25 21 18 16 15 14 12 9 5 1 0 0 0 0
0 0 0 0 0 0 0 0 0 0 0 0 0 0 0 0 1 3 6 7 10 14 17 21 23 24 23 24 27 28 25 21 17 14 12 12 11 9 5 1 0 0 0 0
0 0 0 0 0 0 0 0 0 0 0 0 0 0 0 0 1 3 5 8 10 12 15 18 20 21 20 22 26 26 23 19 14 10 8 7 6 5 3 1 0 0 0 0
0 0 0 0 0 0 0 0 0 0 0 0 0 0 1 2 2 3 6 10 12 14 15 17 18 18 17 19 23 24 20 16 12 7 5 5 4 3 2 1 0 0 0 0
0 0 0 0 0 0 0 0 0 0 0 0 1 1 3 5 5 5 8 12 16 17 17 17 17 16 15 16 19 20 19 16 12 8 6 5 5 4 2 1 0 0 0 0
0 0 0 0 0 0 0 0 1 0 0 1 2 3 6 8 7 7 9 13 16 20 20 18 16 15 13 13 15 16 17 17 14 11 9 6 4 4 3 2 1 0 0 0
0 0 0 0 0 0 0 0 0 0 1 2 4 5 6 8 8 7 8 10 13 18 20 18 16 14 12 10 10 12 15 17 17 15 12 8 5 4 4 3 2 1 1 1
0 0 0 0 0 0 1 1 0 1 2 4 5 5 6 8 10 9 8 8 10 13 16 16 14 13 12 10 7 9 12 15 17 17 14 10 7 5 5 4 4 3 3 3
0 0 0 0 0 0 1 1 1 1 2 3 4 4 5 9 12 12 11 9 8 10 12 13 12 11 12 11 8 9 10 11 13 15 14 12 9 8 8 8 7 6 5 5
0 0 0 0 0 0 1 1 1 1 1 2 2 3 4 7 9 11 10 9 8 8 10 11 11 9 10 10 9 8 7 7 9 11 12 11 9 10 11 11 10 8 6 5
0 0 0 0 0 0 0 0 0 1 1 2 2 3 3 4 5 6 5 5 5 6 9 11 10 9 9 10 8 6 4 4 6 7 8 7 7 10 12 11 10 9 7 5
0 0 0 0 0 0 0 0 0 1 2 3 2 2 2 2 2 1 1 2 2 4 7 10 10 10 10 9 7 4 3 3 4 5 6 5 6 8 10 9 9 9 8 7
0 0 0 0 0 0 0 0 0 1 2 2 1 1 1 1 0 0 0 1 2 3 5 8 9 10 10 9 6 4 3 3 2 4 4 4 5 7 7 7 8 8 8 8
0 0 0 0 0 0 0 0 0 0 0 0 0 0 0 0 0 0 0 1 2 3 3 5 7 8 8 7 6 5 4 3 2 2 3 3 5 7 7 6 6 6 7 7
0 0 0 0 0 0 0 0 0 0 0 0 1 0 0 0 0 0 0 0 1 1 2 3 4 5 5 5 5 5 5 4 3 2 3 4 6 7 6 4 4 3 4 4
0 0 0 0 0 0 0 0 0 0 0 0 1 0 0 0 0 0 0 0 0 0 1 2 3 3 3 3 4 5 6 5 4 3 3 4 6 6 5 4 3 2 1 2

GEFSCGP_con_prob3kmehi_162.txt.gz
EHI
0 0 0 0 0 0 0 0 0 0 0 0 0 0 1 4 6 13 25 33 33 30 31 37 44 48 46 43 42 39 32 22 17 16 13 10 6 3 1 0 0 0 0 0
0 0 0 0 0 0 0 0 0 0 0 0 0 0 1 3 6 12 19 27 31 31 32 37 44 50 51 51 49 43 34 25 19 16 13 9 5 3 1 0 0 0 0 0
0 0 0 0 0 0 0 0 0 0 0 0 0 0 0 2 6 9 12 19 27 31 33 37 45 52 55 57 56 47 37 29 22 18 15 10 5 2 0 0 0 0 0 0
0 0 0 0 0 0 0 0 0 0 0 0 0 0 0 2 7 9 11 17 23 27 31 37 45 53 56 57 56 48 40 34 28 24 21 15 6 1 0 0 0 0 0 0
0 0 0 0 0 0 0 0 0 0 0 0 0 0 0 2 7 10 13 16 19 23 29 36 41 46 50 53 52 48 45 39 33 29 25 18 9 3 1 2 3 2 1 0
0 0 0 0 0 0 0 0 0 0 0 0 0 0 0 1 4 7 12 16 18 21 26 31 33 37 41 45 45 45 43 38 32 28 25 19 12 7 5 6 6 5 3 2
0 0 0 0 0 0 0 0 0 0 0 0 0 0 0 0 1 3 8 15 20 23 26 28 28 29 33 35 36 37 36 31 29 26 23 19 14 9 7 7 7 6 4 2
0 0 0 0 0 0 0 0 0 0 0 0 0 0 0 0 0 1 5 12 19 23 26 28 26 24 24 27 29 29 27 25 25 24 21 16 12 7 5 5 5 5 2 1
0 0 0 0 0 0 0 0 0 0 0 0 0 0 0 0 0 1 3 9 16 20 22 23 23 20 17 19 23 24 22 20 20 20 18 12 8 5 3 2 3 2 1 0
0 0 0 0 0 0 0 0 0 0 0 0 0 0 0 0 0 1 3 7 12 14 15 15 15 15 14 13 16 18 18 17 15 14 12 9 5 3 1 0 1 1 0 0
0 0 0 0 0 0 0 0 0 0 0 0 0 0 0 0 0 1 3 5 8 11 10 9 10 11 12 10 9 11 12 13 11 9 8 6 3 2 1 1 0 0 0 0
0 0 0 0 0 0 0 0 0 0 0 0 0 0 0 0 0 1 3 5 8 9 8 8 9 9 8 7 5 5 6 8 9 8 6 4 3 2 2 1 0 0 0 0
0 0 0 0 0 0 0 0 0 0 0 0 0 0 0 0 0 1 3 6 8 7 7 7 8 7 5 4 3 2 3 5 6 7 5 3 2 2 2 1 0 0 0 0
0 0 0 0 0 0 0 0 0 0 0 0 0 0 0 0 1 2 4 6 7 6 5 4 5 4 2 2 2 2 3 3 3 3 2 1 1 1 1 0 0 0 0 0
0 0 0 0 0 0 1 1 0 0 0 0 0 0 0 0 1 3 4 6 7 6 4 2 3 2 1 1 2 3 3 3 2 1 0 0 0 0 0 0 0 0 0 0
0 0 0 0 0 0 1 1 0 0 0 0 0 0 1 1 1 2 3 4 6 5 3 2 2 1 0 1 4 5 4 3 2 1 0 0 0 0 0 0 0 0 0 0
0 0 0 0 0 0 1 1 0 0 0 0 0 1 2 2 1 1 2 3 4 3 1 1 1 1 0 2 5 6 4 3 2 1 0 0 0 0 0 0 0 0 0 0
0 0 0 0 0 0 0 0 0 0 0 0 1 3 3 3 2 2 2 2 1 1 0 0 0 0 1 2 4 5 4 2 1 0 0 0 0 0 0 0 0 0 0 0
0 0 0 0 0 0 0 0 0 0 0 0 2 3 3 2 2 2 2 2 1 0 0 0 0 0 1 2 3 3 2 1 0 0 0 0 0 0 0 0 0 0 0 0
0 0 0 0 0 0 0 0 0 0 0 0 1 2 2 1 1 1 1 1 1 0 0 0 0 0 0 1 1 1 0 0 0 0 0 0 1 1 1 1 1 1 0 0
0 0 0 0 0 0 0 0 0 0 0 0 0 1 2 2 1 1 0 0 0 0 0 0 0 0 0 0 0 0 0 0 0 0 1 1 2 2 2 2 2 2 1 1
0 0 0 0 0 0 0 0 0 0 0 0 0 0 1 2 2 1 0 0 0 0 0 0 0 0 0 0 0 0 0 0 0 0 1 2 3 3 3 3 3 3 3 2
0 0 1 1 0 0 0 0 0 0 0 0 0 0 0 1 1 1 0 0 0 0 0 0 0 0 0 0 0 0 0 0 1 1 1 1 2 3 3 3 3 3 3 3
0 0 1 1 1 1 0 0 0 0 1 1 0 0 0 0 0 0 0 0 0 0 0 0 0 1 1 0 0 0 0 1 2 1 0 0 1 1 2 3 3 3 3 3
0 0 1 1 0 0 0 0 0 0 1 1 0 0 0 0 0 0 0 0 0 0 0 0 0 1 1 0 0 0 1 2 2 1 0 0 0 0 1 2 2 2 2 2
0 0 0 0 0 0 0 0 0 0 1 1 0 0 0 0 0 0 0 0 0 0 0 0 0 1 1 0 0 0 1 2 1 0 0 0 0 0 0 1 1 1 1 1